Weather in Russkaya Tavra

Russia / Sverdlovsk Oblast     56°07′37″N   57°59′02″E
temp.,
°C
wind,
m/s
gust,
m/s
humid.,
%
clouds,
%
prec.,
mm/h
press.,
hPa
HPBL,
m
25 may, wed
wed2523:00+11ne0085100 0.3 100612
02:00+10nnw2398100 4.9 100585
05:00+10se2599100 8.4 1004177
08:00+13sse31389100 0.1 1001528
11:00+15ssw4881100 0.2 1002656
14:00+10w61094100 1.9 1005669
17:00+10sw1489100 4.3 1007374
20:00+11ssw3591100 0.9 1008270
26 may, thu
thu2623:00+8ssw22925 0.9 100924
02:00+7ssw339381 0.0 101057
05:00+7wsw5994100 0.0 1011509
08:00+7w488312 0.1 1013747
11:00+10w565523 0.1 10141303
14:00+13wnw564795 0.0 10131531
17:00+13wnw554723 0.0 10141859
20:00+10wnw58655 0.0 1013458
27 may, fri
fri2723:00+6wnw347938 0.0 101471
02:00+4w11815 0.0 101411
05:00+3wsw22865 0.0 101411
08:00+8wsw46725 0.0 1013435
11:00+13wsw565412 0.0 10121455
14:00+16sw454737 0.0 10111907
17:00+16sw5654100 0.0 10111778
20:00+13ssw3569100 0.0 1011114
28 may, sat
sat2823:00+10s357872 0.0 101183
02:00+9sse348299 0.0 101179
05:00+10se368295 0.0 1010178
08:00+10s398298 0.0 1011441
11:00+13ssw477760 0.1 1012850
14:00+17ssw466275 0.1 10121435
17:00+17sw566050 0.5 10121428
20:00+15sw48805 0.4 1013468
29 may, sun
sun2923:00+11s3119162 0.4 1014250
02:00+13ssw51384100 0.0 1014520
05:00+13ssw51480100 0.1 1015614
08:00+13ssw61280100 0.1 1016574
11:00+17sw7107199 0.2 10181144
14:00+18wsw71067100 0.1 10181352
17:00+19sw586787 0.3 10181397
20:00+17sw4885100 0.4 1018482